Preview of NWS' New Version of Forecast
This preview is not operational and should not be used for support decisions.

Regional Weather Roundup (RWR)

Issued by Gray - Portland, ME (GYX)

                            
000
ASUS41 KGYX 241010
RWRGYX
WEATHER ROUNDUP FOR MAINE AND NEW HAMPSHIRE
NATIONAL WEATHER SERVICE GRAY ME
600 AM EDT MON JUN 24 2019

MEZ002-005-006-010-012-015-018-020-021-024-026-027-029-241100-
MAINE
  
CITY           SKY/WX    TMP DP  RH WIND       PRES   REMARKS
PORTLAND       FAIR      57  48  72 CALM      29.82R                  
SANFORD        FAIR      53  49  86 CALM      29.82R                  
BAR HARBOR     FAIR      49  48  97 CALM      29.80R                  
WISCASSET      FAIR      51  47  86 CALM      29.82R                  
ROCKLAND       FAIR      53  49  86 CALM      29.80R                  
FRYEBURG       FAIR      50  48  93 CALM      29.84R                  
LEWISTONAUBURN FAIR      52  48  86 CALM      29.83R                  
AUGUSTA        FAIR      57  46  66 N6        29.82R                  
WATERVILLE     FAIR      50  47  89 CALM      29.80R                  
BANGOR         FAIR      50  48  93 CALM      29.81R                  
GREENVILLE       N/A     52  44  74 VRB5      29.82R                  
MILLINOCKET    FAIR      50  44  80 CALM      29.82R                  
HOULTON        FAIR      48  38  68 NW3       29.78R                  
PRESQUE ISLE   FAIR      49  38  65 NW9       29.80R                  
FRENCHVILLE    FAIR      49  36  61 NW8       29.79R                  
CARIBOU        FAIR      49  39  68 NW7       29.78R                  
$$

NHZ002-005-008-009-011-012-014-241100-
NEW HAMPSHIRE
  
CITY           SKY/WX    TMP DP  RH WIND       PRES   REMARKS
PORTSMOUTH     CLEAR     61  50  67 CALM      29.79R                  
ROCHESTER      FAIR      58  49  72 NW6       29.81R                  
NASHUA         FAIR      60  56  86 CALM      29.83R                  
MANCHESTER     FAIR      62  53  72 N3        29.81R                  
CONCORD        FAIR      50  48  93 CALM      29.83R                  
LACONIA        FAIR      56  51  84 CALM      29.84R                  
PLYMOUTH       FAIR      50  48  92 CALM      29.84S                  
BERLIN         FAIR      42  40  92 CALM      29.87R                  
WHITEFIELD     FAIR      43  40  89 CALM      29.87R                  
JAFFREY        FAIR      54  51  90 S3        29.87R                  
KEENE          FAIR      52  51  97 CALM      29.86S FOG              
LEBANON        FAIR      51  47  86 CALM      29.85S                  
MT WASHINGTON  PTCLDY    43  28  56 N35G48      N/A                   
$$

VTZ005-007-008-241100-
VERMONT
  
CITY           SKY/WX    TMP DP  RH WIND       PRES   REMARKS
ST JOHNSBURY     N/A     49  47  93 MISG      29.86R                  
MONTPELIER     FAIR      52  49  89 CALM      29.91R                  
BURLINGTON     FAIR      56  51  84 E3        29.86S                  
$$

MAZ007-012-024-CTZ003-RIZ002-NYZ038-NYZ072-241100-
SOUTHERN NEW ENGLAND AND NY
  
CITY           SKY/WX    TMP DP  RH WIND       PRES   REMARKS
BOSTON         FAIR      70  52  52 W9        29.81R                  
WORCESTER      FAIR      61  51  70 W10       29.86R                  
NANTUCKET      FAIR      61  57  87 W6        29.80R                  
PROVIDENCE     FAIR      66  61  84 W7        29.83R                  
HARTFORD       FAIR      60  51  72 CALM      29.85S                  
ALBANY         FAIR      57  50  77 CALM      29.87S                  
NEW YORK CITY  FAIR      70  55  59 W3        29.87R                  
$$

ANZ081-ANZ082-ANZ150-NHZ014-MEZ023>029-241100-
COASTAL MARINE OBSERVATIONS
  
STATION/POSITION TIME  TEMP    WIND        PRES    WAVE
                       AIR SEA DIR/SP/G            HT/PER
                 (UTC) (F)     (DEG/KT/KT) (MB)    (FT/S)
ISLE OF SHOALS   0900   65     300/ 12/ 12 1008.1R
JEFFREYS LEDGE   0908      59                N/A     1/ 3
$$

.............KEY..............
   WCI - WIND CHILL
   TC  - TEMPERATURE IN CELSIUS
   VSB - VISIBILITY IN MILES
   HX  - HEAT INDEX
   FAIR- INDICATES FEW OR NO CLOUDS BELOW 12,000 FT, WITH NO 
         SIGNIFICANT WEATHER AND/OR OBSTRUCTIONS TO VISIBILITY.